﻿測定場所 (Monitoring sites),日付 (Measurement date),時間 (Measurement time),線量率 最大値 (max) μGy/h,線量率 最小値 (min) μGy/h,線量率 平均値 (average) μGy/h,
新宿 (Shinjuku),2013-04-07,23:01～24:00,0.0485,0.0425,0.0449,
新宿 (Shinjuku),2013-04-07,22:01～23:00,0.0473,0.0417,0.0447,
新宿 (Shinjuku),2013-04-07,21:01～22:00,0.0485,0.0423,0.0453,
新宿 (Shinjuku),2013-04-07,20:01～21:00,0.0488,0.0422,0.0450,
新宿 (Shinjuku),2013-04-07,19:01～20:00,0.0485,0.0432,0.0455,
新宿 (Shinjuku),2013-04-07,18:01～19:00,0.0488,0.0416,0.0449,
新宿 (Shinjuku),2013-04-07,17:01～18:00,0.0490,0.0414,0.0452,
新宿 (Shinjuku),2013-04-07,16:01～17:00,0.0478,0.0411,0.0447,
新宿 (Shinjuku),2013-04-07,15:01～16:00,0.0499,0.0408,0.0452,
新宿 (Shinjuku),2013-04-07,14:01～15:00,0.0484,0.0415,0.0450,
新宿 (Shinjuku),2013-04-07,13:01～14:00,0.0502,0.0419,0.0454,
新宿 (Shinjuku),2013-04-07,12:01～13:00,0.0474,0.0421,0.0449,
新宿 (Shinjuku),2013-04-07,11:01～12:00,0.0494,0.0421,0.0453,
新宿 (Shinjuku),2013-04-07,10:01～11:00,0.0486,0.0414,0.0451,
新宿 (Shinjuku),2013-04-07,09:01～10:00,0.0485,0.0422,0.0453,
新宿 (Shinjuku),2013-04-07,08:01～09:00,0.0494,0.0411,0.0452,
新宿 (Shinjuku),2013-04-07,07:01～08:00,0.0492,0.0414,0.0452,
新宿 (Shinjuku),2013-04-07,06:01～07:00,0.0489,0.0419,0.0450,
新宿 (Shinjuku),2013-04-07,05:01～06:00,0.0482,0.0408,0.0447,
新宿 (Shinjuku),2013-04-07,04:01～05:00,0.0477,0.0410,0.0447,
新宿 (Shinjuku),2013-04-07,03:01～04:00,0.0486,0.0417,0.0452,
新宿 (Shinjuku),2013-04-07,02:01～03:00,0.0512,0.0421,0.0478,
新宿 (Shinjuku),2013-04-07,01:01～02:00,0.0555,0.0468,0.0523,
新宿 (Shinjuku),2013-04-07,00:01～01:00,0.0576,0.0498,0.0538,
新宿 (Shinjuku),2013-04-06,23:01～24:00,0.0585,0.0484,0.0531,
新宿 (Shinjuku),2013-04-06,22:01～23:00,0.0537,0.0454,0.0498,
新宿 (Shinjuku),2013-04-06,21:01～22:00,0.0516,0.0463,0.0489,
新宿 (Shinjuku),2013-04-06,20:01～21:00,0.0526,0.0449,0.0500,
新宿 (Shinjuku),2013-04-06,19:01～20:00,0.0542,0.0473,0.0505,
新宿 (Shinjuku),2013-04-06,18:01～19:00,0.0543,0.0463,0.0494,
新宿 (Shinjuku),2013-04-06,17:01～18:00,0.0511,0.0452,0.0483,
新宿 (Shinjuku),2013-04-06,16:01～17:00,0.0512,0.0443,0.0475,
新宿 (Shinjuku),2013-04-06,15:01～16:00,0.0508,0.0438,0.0466,
新宿 (Shinjuku),2013-04-06,14:01～15:00,0.0479,0.0395,0.0445,
新宿 (Shinjuku),2013-04-06,13:01～14:00,0.0470,0.0407,0.0448,
新宿 (Shinjuku),2013-04-06,12:01～13:00,0.0482,0.0412,0.0445,
新宿 (Shinjuku),2013-04-06,11:01～12:00,0.0479,0.0418,0.0446,
新宿 (Shinjuku),2013-04-06,10:01～11:00,0.0508,0.0412,0.0449,
新宿 (Shinjuku),2013-04-06,09:01～10:00,0.0477,0.0414,0.0442,
新宿 (Shinjuku),2013-04-06,08:01～09:00,0.0467,0.0409,0.0448,
新宿 (Shinjuku),2013-04-06,07:01～08:00,0.0484,0.0429,0.0456,
新宿 (Shinjuku),2013-04-06,06:01～07:00,0.0480,0.0418,0.0450,
新宿 (Shinjuku),2013-04-06,05:01～06:00,0.0480,0.0411,0.0447,
新宿 (Shinjuku),2013-04-06,04:01～05:00,0.0471,0.0414,0.0449,
新宿 (Shinjuku),2013-04-06,03:01～04:00,0.0483,0.0419,0.0448,
新宿 (Shinjuku),2013-04-06,02:01～03:00,0.0493,0.0417,0.0452,
新宿 (Shinjuku),2013-04-06,01:01～02:00,0.0484,0.0420,0.0450,
新宿 (Shinjuku),2013-04-06,00:01～01:00,0.0485,0.0402,0.0445,
新宿 (Shinjuku),2013-04-05,23:01～24:00,0.0472,0.0418,0.0444,
新宿 (Shinjuku),2013-04-05,22:01～23:00,0.0484,0.0412,0.0448,
新宿 (Shinjuku),2013-04-05,21:01～22:00,0.0485,0.0409,0.0447,
新宿 (Shinjuku),2013-04-05,20:01～21:00,0.0473,0.0429,0.0448,
新宿 (Shinjuku),2013-04-05,19:01～20:00,0.0477,0.0400,0.0445,
新宿 (Shinjuku),2013-04-05,18:01～19:00,0.0481,0.0411,0.0447,
新宿 (Shinjuku),2013-04-05,17:01～18:00,0.0478,0.0412,0.0445,
新宿 (Shinjuku),2013-04-05,16:01～17:00,0.0475,0.0413,0.0444,
新宿 (Shinjuku),2013-04-05,15:01～16:00,0.0474,0.0410,0.0444,
新宿 (Shinjuku),2013-04-05,14:01～15:00,0.0483,0.0428,0.0453,
新宿 (Shinjuku),2013-04-05,13:01～14:00,0.0475,0.0412,0.0446,
新宿 (Shinjuku),2013-04-05,12:01～13:00,0.0478,0.0409,0.0448,
新宿 (Shinjuku),2013-04-05,11:01～12:00,0.0475,0.0417,0.0451,
新宿 (Shinjuku),2013-04-05,10:01～11:00,0.0483,0.0418,0.0453,
新宿 (Shinjuku),2013-04-05,09:01～10:00,0.0501,0.0419,0.0454,
新宿 (Shinjuku),2013-04-05,08:01～09:00,0.0501,0.0428,0.0452,
新宿 (Shinjuku),2013-04-05,07:01～08:00,0.0491,0.0417,0.0450,
新宿 (Shinjuku),2013-04-05,06:01～07:00,0.0474,0.0422,0.0450,
新宿 (Shinjuku),2013-04-05,05:01～06:00,0.0490,0.0410,0.0446,
新宿 (Shinjuku),2013-04-05,04:01～05:00,0.0485,0.0424,0.0448,
新宿 (Shinjuku),2013-04-05,03:01～04:00,0.0478,0.0408,0.0451,
新宿 (Shinjuku),2013-04-05,02:01～03:00,0.0482,0.0416,0.0446,
新宿 (Shinjuku),2013-04-05,01:01～02:00,0.0491,0.0420,0.0451,
新宿 (Shinjuku),2013-04-05,00:01～01:00,0.0472,0.0403,0.0446,
新宿 (Shinjuku),2013-04-04,23:01～24:00,0.0474,0.0392,0.0445,
新宿 (Shinjuku),2013-04-04,22:01～23:00,0.0478,0.0417,0.0445,
新宿 (Shinjuku),2013-04-04,21:01～22:00,0.0480,0.0415,0.0446,
新宿 (Shinjuku),2013-04-04,20:01～21:00,0.0486,0.0409,0.0444,
新宿 (Shinjuku),2013-04-04,19:01～20:00,0.0475,0.0407,0.0442,
新宿 (Shinjuku),2013-04-04,18:01～19:00,0.0481,0.0410,0.0443,
新宿 (Shinjuku),2013-04-04,17:01～18:00,0.0475,0.0412,0.0445,
新宿 (Shinjuku),2013-04-04,16:01～17:00,0.0486,0.0421,0.0450,
新宿 (Shinjuku),2013-04-04,15:01～16:00,0.0486,0.0413,0.0444,
新宿 (Shinjuku),2013-04-04,14:01～15:00,0.0482,0.0418,0.0448,
新宿 (Shinjuku),2013-04-04,13:01～14:00,0.0479,0.0420,0.0449,
新宿 (Shinjuku),2013-04-04,12:01～13:00,0.0476,0.0413,0.0449,
新宿 (Shinjuku),2013-04-04,11:01～12:00,0.0488,0.0422,0.0452,
新宿 (Shinjuku),2013-04-04,10:01～11:00,0.0476,0.0414,0.0452,
新宿 (Shinjuku),2013-04-04,09:01～10:00,0.0481,0.0427,0.0451,
新宿 (Shinjuku),2013-04-04,08:01～09:00,0.0489,0.0424,0.0450,
新宿 (Shinjuku),2013-04-04,07:01～08:00,0.0482,0.0409,0.0450,
新宿 (Shinjuku),2013-04-04,06:01～07:00,0.0492,0.0408,0.0448,
新宿 (Shinjuku),2013-04-04,05:01～06:00,0.0496,0.0411,0.0442,
新宿 (Shinjuku),2013-04-04,04:01～05:00,0.0472,0.0412,0.0441,
新宿 (Shinjuku),2013-04-04,03:01～04:00,0.0476,0.0415,0.0445,
新宿 (Shinjuku),2013-04-04,02:01～03:00,0.0483,0.0410,0.0443,
新宿 (Shinjuku),2013-04-04,01:01～02:00,0.0474,0.0403,0.0440,
新宿 (Shinjuku),2013-04-04,00:01～01:00,0.0469,0.0410,0.0444,
新宿 (Shinjuku),2013-04-03,23:01～24:00,0.0480,0.0413,0.0441,
新宿 (Shinjuku),2013-04-03,22:01～23:00,0.0467,0.0415,0.0444,
新宿 (Shinjuku),2013-04-03,21:01～22:00,0.0483,0.0418,0.0442,
新宿 (Shinjuku),2013-04-03,20:01～21:00,0.0475,0.0417,0.0444,
新宿 (Shinjuku),2013-04-03,19:01～20:00,0.0480,0.0406,0.0444,
新宿 (Shinjuku),2013-04-03,18:01～19:00,0.0473,0.0410,0.0443,
新宿 (Shinjuku),2013-04-03,17:01～18:00,0.0479,0.0407,0.0450,
新宿 (Shinjuku),2013-04-03,16:01～17:00,0.0480,0.0408,0.0452,
新宿 (Shinjuku),2013-04-03,15:01～16:00,0.0488,0.0418,0.0462,
新宿 (Shinjuku),2013-04-03,14:01～15:00,0.0551,0.0438,0.0500,
新宿 (Shinjuku),2013-04-03,13:01～14:00,0.0591,0.0496,0.0548,
新宿 (Shinjuku),2013-04-03,12:01～13:00,0.0591,0.0509,0.0555,
新宿 (Shinjuku),2013-04-03,11:01～12:00,0.0570,0.0493,0.0529,
新宿 (Shinjuku),2013-04-03,10:01～11:00,0.0541,0.0471,0.0508,
新宿 (Shinjuku),2013-04-03,09:01～10:00,0.0558,0.0489,0.0519,
新宿 (Shinjuku),2013-04-03,08:01～09:00,0.0558,0.0480,0.0528,
新宿 (Shinjuku),2013-04-03,07:01～08:00,0.0584,0.0512,0.0543,
新宿 (Shinjuku),2013-04-03,06:01～07:00,0.0576,0.0503,0.0540,
新宿 (Shinjuku),2013-04-03,05:01～06:00,0.0560,0.0489,0.0521,
新宿 (Shinjuku),2013-04-03,04:01～05:00,0.0549,0.0455,0.0507,
新宿 (Shinjuku),2013-04-03,03:01～04:00,0.0526,0.0440,0.0481,
新宿 (Shinjuku),2013-04-03,02:01～03:00,0.0507,0.0418,0.0468,
新宿 (Shinjuku),2013-04-03,01:01～02:00,0.0553,0.0450,0.0507,
新宿 (Shinjuku),2013-04-03,00:01～01:00,0.0579,0.0493,0.0536,
新宿 (Shinjuku),2013-04-02,23:01～24:00,0.0594,0.0503,0.0540,
新宿 (Shinjuku),2013-04-02,22:01～23:00,0.0580,0.0490,0.0528,
新宿 (Shinjuku),2013-04-02,21:01～22:00,0.0571,0.0488,0.0530,
新宿 (Shinjuku),2013-04-02,20:01～21:00,0.0586,0.0508,0.0543,
新宿 (Shinjuku),2013-04-02,19:01～20:00,0.0569,0.0508,0.0536,
新宿 (Shinjuku),2013-04-02,18:01～19:00,0.0570,0.0474,0.0516,
新宿 (Shinjuku),2013-04-02,17:01～18:00,0.0525,0.0469,0.0499,
新宿 (Shinjuku),2013-04-02,16:01～17:00,0.0524,0.0446,0.0476,
新宿 (Shinjuku),2013-04-02,15:01～16:00,0.0509,0.0449,0.0474,
新宿 (Shinjuku),2013-04-02,14:01～15:00,0.0510,0.0436,0.0471,
新宿 (Shinjuku),2013-04-02,13:01～14:00,0.0516,0.0453,0.0487,
新宿 (Shinjuku),2013-04-02,12:01～13:00,0.0531,0.0462,0.0503,
新宿 (Shinjuku),2013-04-02,11:01～12:00,0.0528,0.0472,0.0498,
新宿 (Shinjuku),2013-04-02,10:01～11:00,0.0560,0.0472,0.0514,
新宿 (Shinjuku),2013-04-02,09:01～10:00,0.0544,0.0490,0.0517,
新宿 (Shinjuku),2013-04-02,08:01～09:00,0.0573,0.0489,0.0533,
新宿 (Shinjuku),2013-04-02,07:01～08:00,0.0569,0.0509,0.0536,
新宿 (Shinjuku),2013-04-02,06:01～07:00,0.0565,0.0479,0.0519,
新宿 (Shinjuku),2013-04-02,05:01～06:00,0.0554,0.0468,0.0506,
新宿 (Shinjuku),2013-04-02,04:01～05:00,0.0545,0.0479,0.0503,
新宿 (Shinjuku),2013-04-02,03:01～04:00,0.0530,0.0449,0.0491,
新宿 (Shinjuku),2013-04-02,02:01～03:00,0.0512,0.0437,0.0470,
新宿 (Shinjuku),2013-04-02,01:01～02:00,0.0505,0.0430,0.0469,
新宿 (Shinjuku),2013-04-02,00:01～01:00,0.0511,0.0432,0.0465,
新宿 (Shinjuku),2013-04-01,23:01～24:00,0.0480,0.0430,0.0454,
新宿 (Shinjuku),2013-04-01,22:01～23:00,0.0482,0.0409,0.0448,
新宿 (Shinjuku),2013-04-01,21:01～22:00,0.0478,0.0412,0.0444,
新宿 (Shinjuku),2013-04-01,20:01～21:00,0.0480,0.0416,0.0446,
新宿 (Shinjuku),2013-04-01,19:01～20:00,0.0471,0.0409,0.0445,
新宿 (Shinjuku),2013-04-01,18:01～19:00,0.0480,0.0418,0.0446,
新宿 (Shinjuku),2013-04-01,17:01～18:00,0.0476,0.0406,0.0446,
新宿 (Shinjuku),2013-04-01,16:01～17:00,0.0490,0.0419,0.0449,
新宿 (Shinjuku),2013-04-01,15:01～16:00,0.0477,0.0424,0.0450,
新宿 (Shinjuku),2013-04-01,14:01～15:00,0.0485,0.0419,0.0452,
新宿 (Shinjuku),2013-04-01,13:01～14:00,0.0488,0.0421,0.0454,
新宿 (Shinjuku),2013-04-01,12:01～13:00,0.0490,0.0410,0.0453,
新宿 (Shinjuku),2013-04-01,11:01～12:00,0.0495,0.0422,0.0459,
新宿 (Shinjuku),2013-04-01,10:01～11:00,0.0490,0.0415,0.0453,
新宿 (Shinjuku),2013-04-01,09:01～10:00,0.0489,0.0416,0.0451,
新宿 (Shinjuku),2013-04-01,08:01～09:00,0.0477,0.0424,0.0454,
新宿 (Shinjuku),2013-04-01,07:01～08:00,0.0488,0.0421,0.0454,
新宿 (Shinjuku),2013-04-01,06:01～07:00,0.0488,0.0420,0.0453,
新宿 (Shinjuku),2013-04-01,05:01～06:00,0.0493,0.0427,0.0452,
新宿 (Shinjuku),2013-04-01,04:01～05:00,0.0479,0.0423,0.0451,
新宿 (Shinjuku),2013-04-01,03:01～04:00,0.0486,0.0417,0.0453,
新宿 (Shinjuku),2013-04-01,02:01～03:00,0.0479,0.0406,0.0450,
新宿 (Shinjuku),2013-04-01,01:01～02:00,0.0488,0.0397,0.0450,
新宿 (Shinjuku),2013-04-01,00:01～01:00,0.0494,0.0411,0.0451,
